Карточка аэропорта UHSS

Внимание!
Информация на этой странице в стадии наполнения.
Если вы не увидели какой-то информации, или заметили неточность - пожалуйста сообщите нам!
Спасибо!
Команда RU-STAFF
Название аэропортаХомутово
Название аэропорта (англ.)Khomutovo
Превышение59 ft. (18 m.)
Координаты46°53.316', 142°43.020000000001'
Высота перехода1600
Эшелон переходаFL080
Коды ответчика6601-6627
Зона ОрВДХабаровск РПИ (UHHH)
Данные METARUHSS 272100Z 00000MPS 9999 NSC 02/01 Q1014 R01/70D NOSIG RMK QFE759/1012
Проноз погоды (TAF)UHSS 272000Z 2721/2903 VRB01MPS 9999 NSC BECMG 2723/2801 20005G10MPS BECMG 2807/2809 21003MPS
NOTAMshow/hide NOTAM
AWOS   TABLE

Информация о ВПП

ВПП Длина ВПП (м.) Покрытие Курс ВПП Частота ILS
013401Железобетон12109.5
193401Железобетон192111.7

Диспетчерские позиции

Позывной Наименование органа УВД Частота
UHSS_TWRЮжно-Сахалинск−Старт122.0
UHSS_R_APPЮжно-Сахалинск−Круг120.6



Спутниковое изображение